Regional Weather Roundup
Issued by NWS Cleveland, OH

Home | Current Version | Previous Version | Text Only | Print | Product List | Glossary Off
Versions: 1 2 3 4 5 6 7 8 9 10 11 12 13 14 15 16 17 18 19 20 21 22 23 24 25 26 27 28 29 30 31 32 33 34 35 36 37 38 39 40 41 42 43 44 45 46 47 48 49 50

000
ASUS41 KCLE 011210
RWRCLE
OHIO REGIONAL WEATHER ROUNDUP
NATIONAL WEATHER SERVICE CLEVELAND, OH
800 AM EDT SAT AUG 01 2015

NOTE: "FAIR" INDICATES FEW OR NO CLOUDS BELOW 12,000 FEET WITH NO
SIGNIFICANT WEATHER AND/OR OBSTRUCTIONS TO VISIBILITY.

OHZ001>008-015>018-024>027-034-035-043-044-011300-
   NORTHWEST OHIO

CITY           SKY/WX    TMP DP  RH WIND       PRES   REMARKS
DEFIANCE       SUNNY     65  56  72 VRB3      29.96R
FINDLAY        SUNNY     65  56  72 W7        29.95R
TOLEDO EXPRESS SUNNY     63  56  78 W5        29.94R
TOLEDO EXEC    SUNNY     65  55  70 SW5       29.95R
LIMA           MOSUNNY   63  58  83 W5        29.98R
$$

OHZ009>014-019>023-028>033-038-089-011300-
   NORTHEAST OHIO

CITY           SKY/WX    TMP DP  RH WIND       PRES   REMARKS
CLE-HOPKINS    SUNNY     65  57  75 SW7       29.95R
CLE-LAKEFRONT  HAZE      72  62  71 SW10      29.91R VSB 1
CUY CO. ARPT   MOSUNNY   70  63  78 SW8       29.92R
LORAIN-ELYRIA  SUNNY     65  55  70 W6        29.94R
ASHTABULA      SUNNY     66  62  87 CALM      29.93R
AKRON-CANTON   SUNNY     67  57  70 W6        29.95R
WOOSTER        SUNNY     65  56  72 W5        29.96R
MANSFIELD      SUNNY     66  54  65 W8        29.97R
YOUNGSTOWN     MOSUNNY   67  59  75 CALM      29.93R
$$

OHZ042-051>053-060>062-070>072-077>081-011300-
  SOUTHWEST OHIO

CITY           SKY/WX    TMP DP  RH WIND       PRES   REMARKS
CINC-COVINGTON MOSUNNY   65  62  90 CALM      30.00R
CINC-LUNKEN    SUNNY     64  63  96 CALM      30.00R
HAMILTON       SUNNY     66  62  87 CALM      30.00R
DAYTON         MOSUNNY   67  58  72 NW3       30.00R
WRIGHT-PAT AFB SUNNY     64  61  90 CALM      29.99R
DAYTON GENERAL SUNNY     66  59  78 CALM      29.99R
WILMINGTON     SUNNY     64  59  83 CALM      29.99R
$$

OHZ036-037-039>041-045>050-054>059-063>069-073>076-082>088-011300-
  CENTRAL AND SOUTHEAST OHIO

CITY           SKY/WX    TMP DP  RH WIND       PRES   REMARKS
COLUMBUS       MOSUNNY   66  60  81 CALM      29.96R
OSU AIRPORT    SUNNY     66  60  81 W5        29.97R
BOLTON FIELD   SUNNY     64  61  88 W8        29.98R
RICKENBACK AFB SUNNY     63  61  93 CALM      29.97R
NEWARK         SUNNY     65  61  87 CALM      29.97R
MARION         SUNNY     66  55  67 NW7       29.97R
LANCASTER      SUNNY     65  62  90 CALM      29.97R
ZANESVILLE     SUNNY     66  60  81 CALM      29.96R
NEW PHILLY     SUNNY     65  61  87 CALM      29.95R
$$


USA.gov is the U.S. government's official web portal to all federal, state and local government web resources and services.